Location: Unspecified
(0.0000°N, 0.0000°E)
Time: 20:05:34
(UTC+00:00)

STARLINK-1921 - Visible Passes

Search period start: 12 January 2025 00:00
Search period end: 22 January 2025 00:00
Orbit: 318 x 332 km, 53.0° (Epoch: 12 January)

Date Brightness Start Highest point End Pass type
(mag) Time Alt. Az. Time Alt. Az. Time Alt. Az.
12 Jan 5.1 19:02:15 10° WSW 19:04:14 18° NW 19:06:14 10° N visible
14 Jan 5.5 05:06:11 10° NNE 05:07:19 12° NE 05:08:28 10° E visible
15 Jan 2.9 05:20:35 13° NNW 05:22:54 61° NE 05:25:36 10° SE visible
16 Jan 4.1 05:35:49 11° WNW 05:37:47 21° SW 05:39:55 10° S visible
17 Jan 5.8 04:19:26 15° ESE 04:19:26 15° ESE 04:20:06 10° ESE visible
18 Jan 5.3 04:33:16 15° SSE 04:33:16 15° SSE 04:33:51 10° SSE visible
